#timestamp,LO_Frequency,Hit,StdDev 
1626717615.7,286047004.3,Y
1626717635.6,286047001.0,P
1626717655.4,286047001.2,N
1626717675.2,286046998.8,N
1626717695.1,286046999.1,N
1626717696.0,286046999.1,N
1626717715.8,286046998.2,N
1626717735.6,286046998.4,N
1626717755.5,286046998.1,N
1626717775.3,286047000.7,N
1626717795.2,286047000.4,N
1626717815.9,286047001.1,N
1626717835.7,286047001.1,N
1626717855.6,286046998.2,N
1626717875.4,286047001.1,N
1626717895.2,286046999.9,N
1626717915.1,286047000.4,N
1626717916.0,286047000.4,N
1626717935.8,286047000.2,N
1626717955.7,286047000.0,N
1626717975.5,286047002.8,N
1626717995.3,286047001.8,N
1626718015.2,286047003.4,N
1626718035.0,286047003.2,N
1626718035.9,286047003.2,N
1626718055.7,286047003.1,N
1626718075.6,286047003.2,N
1626718095.4,286047001.4,N
1626718115.3,286047004.2,N
1626718135.1,286047004.4,N
1626718136.0,286047004.4,N
1626718155.8,286047001.4,N
1626718175.7,286047001.7,N
1626718195.5,286047001.6,N
1626718215.3,286047000.4,N
1626718235.2,286047000.6,N
1626718255.0,286046998.2,N
1626718255.9,286046998.2,N
1626718275.8,286046998.2,N
1626718295.6,286047000.4,N
1626718315.4,286046998.3,N
1626718335.3,286046998.3,N
1626718355.1,286047000.8,N
1626718375.9,286047001.1,N
1626718395.7,286046998.5,N
1626718415.5,286046998.5,N
1626718435.4,286046996.9,N
1626718455.2,286046997.4,N
1626718475.0,286046993.6,N
1626718475.9,286046993.6,N
1626718495.8,286046995.9,N
1626718515.6,286046993.3,N
1626718535.5,286046995.9,N
1626718555.3,286046995.6,N
1626718575.1,286046996.2,N
1626718595.9,286046994.2,N
1626718615.7,286046993.4,N
1626718635.5,286046993.8,N
1626718655.4,286046993.8,N
1626718675.2,286046994.3,N
1626718695.1,286046994.5,N
1626718696.0,286046994.5,N
1626718715.8,286046993.8,N
1626718735.6,286046993.3,N
1626718755.5,286046994.5,N
1626718775.3,286046993.4,N
1626718795.1,286046995.7,N
1626718815.9,286046993.3,N
1626718835.7,286046995.2,N
1626718855.6,286046995.2,N
1626718875.4,286046995.8,N
1626718895.2,286046995.7,N
1626718915.1,286046995.7,N
1626718916.0,286046995.7,N
1626718935.8,286046995.9,N
1626718955.7,286046995.9,Y
1626718975.5,286047000.8,P
1626718995.3,286047001.1,N
1626719015.2,286047000.6,N
1626719035.0,286047000.9,N
1626719035.9,286047000.9,N
1626719055.7,286046999.3,N
1626719075.6,286046998.4,N
1626719095.4,286046998.9,N
1626719115.3,286046998.7,N
1626719135.1,286047001.2,N
1626719136.0,286047001.2,N
1626719155.8,286047000.0,N
1626719175.7,286047000.7,N
1626719195.5,286046999.9,N
1626719215.3,286047000.9,N
1626719235.2,286047002.5,N
1626719255.0,286047001.3,N
1626719255.9,286047001.3,N
1626719275.8,286047001.7,N
1626719295.6,286047001.5,N
1626719315.4,286047002.0,N
1626719335.3,286047002.8,N
1626719355.1,286047002.7,N
1626719375.8,286047002.0,N
1626719395.7,286046998.3,N
1626719415.5,286047000.5,N
1626719435.4,286047000.6,N
1626719455.2,286046998.1,N
1626719475.0,286047001.7,N
1626719475.9,286047001.7,N
1626719495.8,286047002.7,N
1626719515.6,286047001.9,N
1626719535.4,286047000.5,N
1626719555.3,286047002.0,N
1626719575.1,286047000.3,N
1626719595.9,286047001.2,N
1626719615.7,286047000.7,N
1626719635.5,286046999.7,N
1626719655.4,286047004.4,Y
1626719675.2,286047004.4,P
1626719695.1,286047003.7,N
1626719696.0,286047003.7,N
1626719715.8,286047004.2,Y
1626719735.6,286046998.3,P
1626719755.5,286047000.9,N
1626719775.3,286047001.2,N
1626719795.2,286046998.1,N
1626719815.9,286047000.9,N
1626719835.7,286047001.2,N
1626719855.6,286046998.4,N
1626719875.4,286047001.2,N
1626719895.3,286046998.6,N
1626719915.1,286046998.9,N
1626719916.0,286046998.9,N
1626719935.8,286046997.0,N
1626719955.7,286046996.9,N
1626719975.5,286046997.0,N
1626719995.3,286046997.6,N
1626720015.2,286046996.8,N
1626720035.0,286046996.6,N
1626720035.9,286046996.6,N
1626720055.8,286046997.1,N
1626720075.6,286046997.1,N
1626720095.4,286046999.0,N
1626720115.3,286046998.4,N
1626720135.1,286046998.3,N
1626720155.8,286046998.2,N
1626720175.7,286047011.9,Y
1626720195.5,286047000.8,P
1626720215.4,286047000.8,N
1626720235.2,286047000.0,N
1626720255.0,286046999.9,N
1626720255.9,286046999.9,N
1626720275.8,286047002.4,Y
1626720295.6,286047002.8,P
1626720315.4,286047000.4,N
1626720335.3,286047002.5,N
1626720355.1,286047001.1,N
1626720375.9,286047000.2,N
1626720395.7,286047000.9,N
1626720415.5,286047001.0,N
1626720435.4,286047000.9,N
1626720455.2,286047000.7,N
1626720475.0,286047001.0,N
1626720475.9,286047001.0,N
1626720495.8,286047001.0,N
1626720515.6,286047000.4,N
1626720535.5,286047002.3,Y
1626720555.3,286046998.1,P
1626720575.1,286046998.5,N
1626720595.9,286046998.2,N
1626720615.7,286047000.5,N
1626720635.5,286047000.3,N
1626720655.4,286047000.1,N
1626720675.2,286046999.8,N
1626720695.1,286046999.7,N
1626720696.0,286046999.7,N
1626720715.8,286046999.8,N
1626720735.6,286046999.7,N
1626720755.5,286047000.2,N
1626720775.3,286047000.5,N
1626720795.1,286047000.9,N
1626720815.9,286047000.5,N
1626720835.7,286046998.1,N
1626720855.6,286046998.1,N
1626720875.4,286047000.6,N
1626720895.2,286047000.3,N
1626720915.1,286047000.3,N
1626720916.0,286047000.3,N
1626720935.8,286047000.6,N
1626720955.6,286046999.7,N
1626720975.5,286047002.6,N
1626720995.3,286047002.1,N
1626721015.2,286047004.4,Y
1626721035.9,286047005.3,P
1626721055.7,286047005.5,N
1626721075.6,286047007.5,N
1626721095.4,286047007.3,N
1626721115.2,286047007.0,N
1626721135.1,286047006.6,N
1626721166.0,286047006.2,E
1626721175.0,286047005.0,N
1626721175.9,286047005.0,P
1626721195.8,286047002.7,P
